Location: Geroldsau
(48.7259°N, 8.2466°E)
Time: 04:04:43
(UTC+00:00)

SL-08 R/B - Visible Passes

Search period start: 17 October 2021 00:00
Search period end: 27 October 2021 00:00
Orbit: 674 x 738 km, 98.5° (Epoch: 16 October)

Date Brightness Start Highest point End Pass type
(mag) Time Alt. Az. Time Alt. Az. Time Alt. Az.
17 Oct 6.3 01:25:25 11° NNE 01:25:25 11° NNE 01:25:44 10° NNE visible
17 Oct 5.6 03:04:24 14° NNW 03:04:24 14° NNW 03:05:01 10° NNW visible
17 Oct 6.4 18:09:19 10° NNW 18:11:00 12° NW 18:12:42 10° WNW visible
18 Oct 6.0 02:10:11 13° N 02:10:11 13° N 02:10:46 10° N visible
18 Oct 5.5 17:13:35 10° N 17:17:49 29° WNW 17:22:02 10° WSW visible
19 Oct 5.9 02:54:56 11° N 02:54:56 11° N 02:55:05 10° NNW visible
19 Oct 6.3 17:58:44 10° NNW 18:01:14 14° NW 18:03:44 10° W visible
20 Oct 5.2 17:03:31 10° N 17:07:59 35° WNW 17:12:26 10° SW visible
21 Oct 6.2 17:48:24 10° NNW 17:51:28 17° WNW 17:54:31 10° W visible
22 Oct 4.8 16:53:28 10° N 16:58:07 42° WNW 17:02:46 10° SW visible
23 Oct 6.0 17:38:09 10° NNW 17:41:40 20° WNW 17:45:11 10° WSW visible
24 Oct 4.4 16:43:27 10° N 16:48:15 51° WNW 16:53:02 10° SW visible
25 Oct 5.8 17:27:59 10° N 17:31:51 23° WNW 17:35:43 10° WSW visible
26 Oct 6.4 18:13:47 10° NW 18:15:12 11° NW 18:16:36 10° WNW visible
